Reus, Spain

12:47 AM CET en Noviembre 24, 2017 (GMT +0100)
Reus Air Base

Tiempo Historia de LERS - Septiembre, 2017

Change the Weather History Date:

Jueves, Septiembre 14, 2017

  Actual Average Record
Temperature  
Temperatura media 76 ° F -  
Temperatura máxima 91 ° F 74 ° F 91 ° F (2017)
Temperatura mínima 62 ° F 59 ° F 55 ° F (2008)
Cooling Degree Days 12    
Growing Degree Days 26 (Base 50)    
Moisture  
Punto de rocío 65 ° F    
Average Humidity 73    
Maximum Humidity 96    
Minimum Humidity 20    
Precipitación  
Precipitación 0.94 pul - - ()
Presión al nivel del mar  
Presión al nivel del mar 30.01 pul    
Viento  
Velocidad del viento 4 mph ()    
Velocidad máxima del viento 18 mph    
Max Gust Speed 30 mph    
Visibilidad 6.9 Millas    
Eventos Lluvia    
Averages and records for this station are not official NWS values.
T = Trace of Precipitation, MM = Missing Value Source: Averaged Metar Reports

Daily Weather History Graph

Daily Weather History Graph

Search for Another Location

Airport or City:

Trip Planner

Search our weather history database for the weather conditions in past years. The results will help you decide how hot, cold, wet, or windy it might be!

Date:

Astronomía

Sep. 14, 2017 Salida Puesta
Hora real 7:34 AM CEST 8:06 PM CEST
Crepúsculo civil 7:07 AM CEST 8:33 PM CEST
Crepúsculo náutico 6:34 AM CEST 9:06 PM CEST
Crepúsculo astronómico 6:00 AM CEST 9:39 PM CEST
Luna 1:15 AM CEST (9/14) 4:10 PM CEST (9/14)
Horas de luz 13h 26m
Horas de luz
12h 31m
Cuarto menguante, 37% of the Moon is Illuminated
Sep 14
Cuarto menguante
Sep 20
Nueva
Sep 28
Cuarto creciente
Oct 5
Luna llena
Oct 12
Cuarto menguante

Hourly Weather History & Observations

Hora (CEST) Temp. Índice de calor Punto de rocío Humedad Presión Visibilidad Wind Dir Velocidad del viento Velocidad de ráfagas Precip Eventos Condiciones
12:00 AM 70 ° F - 65 ° F 80% 30.12 pul 14 mi NO 1.2 mph - -  
12:00 AM 69.8 ° F - 64.4 ° F 83% 30.12 pul 6.2 mi Variable 1.2 mph - N/A   Parcialmente nublado
12:30 AM 69.8 ° F - 66.2 ° F 88% 30.12 pul 6.2 mi Variable 1.2 mph - N/A   Muy nublado
1:00 AM 70 ° F - 65 ° F 80% 30.11 pul 15 mi Sin viento Sin viento - -  
1:00 AM 69.8 ° F - 64.4 ° F 83% 30.09 pul 6.2 mi Sin viento Sin viento - N/A   Muy nublado
1:30 AM 69.8 ° F - 64.4 ° F 83% 30.09 pul 6.2 mi Sin viento Sin viento - N/A   Parcialmente nublado
2:00 AM 69 ° F - 65 ° F 83% 30.09 pul 11 mi SSO 2.3 mph - -  
2:00 AM 68.0 ° F - 64.4 ° F 88% 30.09 pul 6.2 mi Sin viento Sin viento - N/A   Parcialmente nublado
2:30 AM 68.0 ° F - 64.4 ° F 88% 30.06 pul 6.2 mi Sin viento Sin viento - N/A   Parcialmente nublado
3:00 AM 68.0 ° F - 64.4 ° F 88% 30.06 pul 6.2 mi Sin viento Sin viento - N/A   Muy nublado
3:30 AM 71.6 ° F - 66.2 ° F 83% 30.06 pul 6.2 mi Sin viento Sin viento - N/A   Muy nublado
4:00 AM 73 ° F - 68 ° F 80% 30.04 pul 14 mi SO 2.3 mph - -  
4:00 AM 73.4 ° F - 68.0 ° F 83% 30.04 pul 6.2 mi SSO 3.5 mph - N/A   Muy nublado
4:30 AM 73.4 ° F - 68.0 ° F 83% 30.04 pul 6.2 mi SSO 3.5 mph - N/A   Muy nublado
5:00 AM 73 ° F - 68 ° F 81% 30.02 pul 13 mi Sur 4.6 mph - -  
5:00 AM 73.4 ° F - 68.0 ° F 83% 30.04 pul 6.2 mi Variable 1.2 mph - N/A   Muy nublado
5:30 AM 73.4 ° F - 68.0 ° F 83% 30.01 pul 6.2 mi Variable 1.2 mph - N/A   Nublado
6:00 AM 74 ° F - 69 ° F 78% 30.02 pul 13 mi OSO 2.3 mph - -  
6:00 AM 73.4 ° F - 68.0 ° F 83% 30.01 pul 6.2 mi Sur 3.5 mph - N/A   Muy nublado
6:30 AM 73.4 ° F - 69.8 ° F 88% 30.01 pul 6.2 mi Variable 2.3 mph - N/A   Nublado
7:00 AM 73 ° F - 69 ° F 84% 30.01 pul 9 mi Sin viento Sin viento - -  
7:00 AM 73.4 ° F - 69.8 ° F 88% 30.01 pul 6.2 mi Variable 1.2 mph - N/A   Muy nublado
7:30 AM 73.4 ° F - 69.8 ° F 88% 30.01 pul 6.2 mi Variable 2.3 mph - N/A   Muy nublado
8:00 AM 74 ° F - 70 ° F 85% 30.01 pul 9 mi SSO 2.3 mph - -   Muy nublado
8:00 AM 73.4 ° F - 69.8 ° F 88% 30.01 pul 6.2 mi Sur 4.6 mph - N/A   Muy nublado
8:30 AM 75.2 ° F - 69.8 ° F 83% 30.01 pul 6.2 mi Sur 4.6 mph - N/A   Muy nublado
9:00 AM 75 ° F - 70 ° F 79% 30.00 pul 10 mi OSO 2.3 mph - -  
9:00 AM 75.2 ° F - 69.8 ° F 83% 30.01 pul 6.2 mi Variable 2.3 mph - N/A   Muy nublado
9:30 AM 75.2 ° F - 69.8 ° F 83% 30.01 pul 6.2 mi OSO 3.5 mph - N/A   Muy nublado
10:00 AM 77.0 ° F - 69.8 ° F 78% 30.01 pul 6.2 mi SSO 3.5 mph - N/A   Muy nublado
10:30 AM 77.0 ° F - 68.0 ° F 74% 30.01 pul 6.2 mi SO 5.8 mph - N/A   Nubes dispersas
11:00 AM 81 ° F - 69 ° F 60% 30.00 pul 12 mi Sur 5.8 mph - -   Parcialmente nublado
11:00 AM 78.8 ° F - 68.0 ° F 69% 30.01 pul 6.2 mi Sur 5.8 mph - N/A   Nubes dispersas
11:30 AM 80.6 ° F 83.9 ° F 69.8 ° F 70% 30.01 pul 6.2 mi SSO 4.6 mph - N/A   Nubes dispersas
12:00 PM 82 ° F - 69 ° F 57% 30.00 pul 15 mi SSO 5.8 mph - -  
12:00 PM 80.6 ° F 83.2 ° F 68.0 ° F 65% 30.01 pul 6.2 mi Variable 4.6 mph - N/A   Parcialmente nublado
12:30 PM 80.6 ° F 83.9 ° F 69.8 ° F 70% 29.98 pul 6.2 mi Variable 4.6 mph - N/A   Parcialmente nublado
1:00 PM 83 ° F - 69 ° F 55% 29.98 pul 13 mi Sur 5.8 mph - -  
1:00 PM 82.4 ° F 86.3 ° F 69.8 ° F 66% 29.98 pul 6.2 mi SSE 6.9 mph - N/A   Parcialmente nublado
1:30 PM 82.4 ° F 86.3 ° F 69.8 ° F 66% 29.98 pul 6.2 mi SSE 6.9 mph - N/A   Parcialmente nublado
2:00 PM 84.2 ° F 87.3 ° F 68.0 ° F 58% 29.95 pul 6.2 mi SE 11.5 mph - N/A   Parcialmente nublado
2:30 PM 86.0 ° F 89.4 ° F 68.0 ° F 55% 29.95 pul 6.2 mi ESE 8.1 mph - N/A   Parcialmente nublado
3:00 PM 90 ° F - 63 ° F 31% 29.94 pul 15 mi Oeste 8.1 mph - -  
3:00 PM 89.6 ° F 89.5 ° F 60.8 ° F 38% 29.95 pul 6.2 mi Variable 5.8 mph - N/A   Parcialmente nublado
3:30 PM 89.6 ° F 88.1 ° F 57.2 ° F 33% 29.95 pul 6.2 mi Oeste 17.3 mph - N/A   Parcialmente nublado
4:00 PM 90 ° F - 57 ° F 23% 29.94 pul 19 mi Oeste 17.3 mph - -  
4:00 PM 89.6 ° F 87.7 ° F 55.4 ° F 31% 29.95 pul 6.2 mi Oeste 18.4 mph - N/A   Parcialmente nublado
4:30 PM 91.4 ° F 89.1 ° F 53.6 ° F 28% 29.92 pul 6.2 mi Oeste 15.0 mph - N/A   Parcialmente nublado
5:00 PM 91 ° F - 55 ° F 20% 29.92 pul 19 mi Oeste 15.0 mph - -   Nubes dispersas
5:00 PM 91.4 ° F 89.1 ° F 53.6 ° F 28% 29.92 pul 6.2 mi Oeste 11.5 mph - N/A   Parcialmente nublado
5:30 PM 89.6 ° F 87.3 ° F 53.6 ° F 29% 29.92 pul 6.2 mi Oeste 13.8 mph - N/A   Parcialmente nublado
6:00 PM 90 ° F - 54 ° F 20% 29.92 pul 19 mi ONO 13.8 mph - -  
6:00 PM 89.6 ° F - 51.8 ° F 27% 29.92 pul 6.2 mi Oeste 13.8 mph - N/A   Parcialmente nublado
6:30 PM 84.2 ° F 85.6 ° F 64.4 ° F 51% 29.92 pul 6.2 mi ESE 3.5 mph - N/A   Parcialmente nublado
7:00 PM 80 ° F - 68 ° F 59% 29.94 pul 16 mi ESE 15.0 mph - -  
7:00 PM 78.8 ° F - 68.0 ° F 69% 29.95 pul 6.2 mi ESE 12.7 mph - N/A   Parcialmente nublado
7:30 PM 77.0 ° F - 69.8 ° F 78% 29.98 pul 6.2 mi Este 11.5 mph - N/A   Parcialmente nublado
8:00 PM 73 ° F - 66 ° F 73% 29.99 pul 7 mi Este 17.3 mph - -   Parcialmente nublado
8:00 PM 73.4 ° F - 66.2 ° F 78% 29.98 pul 6.2 mi Este 13.8 mph - N/A   Nubes dispersas
8:30 PM 73.4 ° F - 66.2 ° F 78% 29.98 pul 6.2 mi Este 16.1 mph 29.9 mph N/A   Nubes dispersas
9:00 PM 72 ° F - 66 ° F 77% 30.02 pul 7 mi NE 12.7 mph - -  
9:00 PM 71.6 ° F - 66.2 ° F 83% 30.01 pul 6.2 mi ENE 9.2 mph - N/A   Muy nublado
9:08 PM 69.8 ° F - 66.2 ° F 88% 30.01 pul 6.2 mi NNE 10.4 mph - N/A Lluvia Lluvias
9:09 PM 69.8 ° F - 66.2 ° F 88% 30.01 pul 0.9 mi NNE 10.4 mph - N/A Lluvia Lluvias
9:20 PM 69.8 ° F - 66.2 ° F 88% 30.04 pul 3.1 mi Variable 10.4 mph - N/A Lluvia Lluvias
9:30 PM 69.8 ° F - 66.2 ° F 88% 30.04 pul 2.5 mi Variable 11.5 mph - N/A Lluvia Lluvia fuerte
9:36 PM 69.8 ° F - 66.2 ° F 88% 30.04 pul 1.2 mi Norte 8.1 mph - N/A Lluvia Lluvia fuerte
9:48 PM 68.0 ° F - 66.2 ° F 94% 30.04 pul 1.9 mi Norte 10.4 mph - N/A Lluvia Lluvias
10:00 PM 67 ° F - 66 ° F 96% 30.04 pul 1 mi NE 12.7 mph - -   Precipitación desconocida
10:00 PM 68.0 ° F - 66.2 ° F 94% 30.04 pul 1.9 mi Norte 8.1 mph - N/A Lluvia Lluvia
10:13 PM 68.0 ° F - 66.2 ° F 94% 30.04 pul 3.1 mi NE 5.8 mph - N/A Lluvia Lluvia
10:30 PM 68.0 ° F - 66.2 ° F 94% 30.04 pul 3.7 mi NE 6.9 mph - N/A Lluvia Lluvia débil
10:48 PM 68.0 ° F - 66.2 ° F 94% 30.04 pul 0.9 mi Oeste 6.9 mph - N/A Lluvia Lluvias
10:53 PM 68.0 ° F - 66.2 ° F 94% 30.04 pul 2.5 mi Oeste 4.6 mph - N/A Lluvia Lluvia
11:00 PM 68 ° F - 66 ° F 92% 30.05 pul 1 mi SO 2.3 mph - -   Precipitación desconocida
11:00 PM 68.0 ° F - 66.2 ° F 94% 30.04 pul 1.9 mi Variable 2.3 mph - N/A Lluvia Lluvia
11:22 PM 68.0 ° F - 66.2 ° F 94% 30.06 pul 0.9 mi Oeste 3.5 mph - N/A Lluvia Lluvias
11:30 PM 64.4 ° F - 59.0 ° F 83% 30.06 pul 1.1 mi Oeste 8.1 mph - N/A Lluvia Lluvias
11:35 PM 62.6 ° F - 59.0 ° F 88% 30.06 pul 0.9 mi Oeste 5.8 mph - N/A Lluvia Lluvias
11:45 PM 62.6 ° F - 59.0 ° F 88% 30.06 pul 2.5 mi Oeste 5.8 mph - N/A Lluvia Lluvia